Location: Antioch Baptist Church
(32.6696°N, 85.7327°W)
Time: 21:16:18
(UTC+00:00)

ERS-1 Rocket - Pass Details

Date: 14 July 2020
Orbit: 752 x 758 km, 98.5° (Epoch: 13 August)

Event Time Altitude Azimuth Distance (km) Brightness Sun altitude
Exits shadow 03:16:29 62° 87° (E) 850 3.0 -24.6°
Maximum altitude 03:16:40 63° 75° (ENE) 847 3.0 -24.7°
Drops below altitude 10° 03:21:39 10° 355° (N) 2,290 6.2 -25.3°
Sets 03:23:58 0° 352° (N) 3,218 7.2 -25.6°
